Time,TemperatureF,DewpointF,PressureIn,WindDirection,WindDirectionDegrees,WindSpeedMPH,WindSpeedGustMPH,Humidity,HourlyPrecipIn,Conditions,Clouds,dailyrainin,SoftwareType,DateUTC
2013-05-27 00:01:00,48.8,30.5,30.24,East,97,0.0,0.0,49,0.00,,CLR,0.00,VWS V14.00,2013-05-27 04:01:00,
2013-05-27 00:07:00,47.2,29.5,30.24,WNW,290,0.0,2.7,50,0.00,,CLR,0.00,VWS V14.00,2013-05-27 04:07:00,
2013-05-27 00:12:00,45.9,29.7,30.24,WNW,290,0.0,0.0,53,0.00,,CLR,0.00,VWS V14.00,2013-05-27 04:12:00,
2013-05-27 00:17:00,46.2,30.5,30.27,WNW,290,0.0,0.0,54,0.00,,CLR,0.00,VWS V14.00,2013-05-27 04:17:00,
2013-05-27 00:22:00,45.9,30.6,30.27,WNW,290,0.0,0.0,55,0.00,,CLR,0.00,VWS V14.00,2013-05-27 04:22:00,
2013-05-27 00:27:00,46.4,31.1,30.27,WNW,290,0.0,0.0,55,0.00,,CLR,0.00,VWS V14.00,2013-05-27 04:27:00,
2013-05-27 00:32:00,46.4,30.7,30.27,NNW,331,0.0,0.0,54,0.00,,CLR,0.00,VWS V14.00,2013-05-27 04:32:00,
2013-05-27 00:37:00,46.4,30.7,30.27,NNW,331,0.0,0.0,54,0.00,,CLR,0.00,VWS V14.00,2013-05-27 04:37:00,
2013-05-27 00:42:00,46.0,30.4,30.27,NNW,331,0.0,0.0,54,0.00,,CLR,0.00,VWS V14.00,2013-05-27 04:42:00,
2013-05-27 00:47:00,45.9,30.2,30.27,NNW,331,0.0,0.0,54,0.00,,CLR,0.00,VWS V14.00,2013-05-27 04:47:00,
2013-05-27 00:52:00,45.7,30.9,30.27,NNW,331,0.0,0.0,56,0.00,,CLR,0.00,VWS V14.00,2013-05-27 04:52:00,
2013-05-27 00:57:00,45.7,30.9,30.27,NNW,331,0.0,0.0,56,0.00,,CLR,0.00,VWS V14.00,2013-05-27 04:57:00,
2013-05-27 01:02:00,45.3,30.5,30.27,NNW,331,0.0,0.0,56,0.00,,BKN120,0.00,VWS V14.00,2013-05-27 05:02:00,
2013-05-27 01:07:00,45.5,30.7,30.27,NNW,331,0.0,0.0,56,0.00,,BKN120,0.00,VWS V14.00,2013-05-27 05:07:00,
2013-05-27 01:13:00,45.7,31.3,30.27,NNW,331,0.0,0.0,57,0.00,,BKN120,0.00,VWS V14.00,2013-05-27 05:13:00,
2013-05-27 01:18:00,45.5,31.2,30.27,ENE,71,2.5,3.2,57,0.00,,BKN120,0.00,VWS V14.00,2013-05-27 05:18:00,
2013-05-27 01:23:00,45.1,31.2,30.27,ENE,78,3.0,3.2,58,0.00,,BKN120,0.00,VWS V14.00,2013-05-27 05:23:00,
2013-05-27 01:28:00,44.8,30.9,30.27,ENE,78,3.0,3.2,58,0.00,,BKN120,0.00,VWS V14.00,2013-05-27 05:28:00,
2013-05-27 01:33:00,44.8,31.3,30.27,ENE,78,2.5,3.2,59,0.00,,BKN120,0.00,VWS V14.00,2013-05-27 05:33:00,
2013-05-27 01:38:00,44.8,31.3,30.27,ENE,67,0.0,2.7,59,0.00,,BKN120,0.00,VWS V14.00,2013-05-27 05:38:00,
2013-05-27 01:43:00,44.9,31.1,30.27,ENE,67,0.0,0.0,58,0.00,,BKN120,0.00,VWS V14.00,2013-05-27 05:43:00,
2013-05-27 01:48:00,42.5,29.6,30.27,WNW,287,0.0,3.2,60,0.00,,BKN120,0.00,VWS V14.00,2013-05-27 05:48:00,
2013-05-27 01:53:00,41.8,29.7,30.27,West,275,0.0,0.0,62,0.00,,BKN120,0.00,VWS V14.00,2013-05-27 05:53:00,
2013-05-27 01:59:00,42.0,30.3,30.27,West,275,0.0,0.0,63,0.00,,BKN120,0.00,VWS V14.00,2013-05-27 05:59:00,
2013-05-27 02:04:00,42.2,30.9,30.27,West,275,0.0,0.0,64,0.00,,BKN120,0.00,VWS V14.00,2013-05-27 06:04:00,
2013-05-27 02:09:00,42.7,31.4,30.27,West,275,0.0,0.0,64,0.00,,BKN120,0.00,VWS V14.00,2013-05-27 06:09:00,
2013-05-27 02:14:00,42.7,31.0,30.27,West,275,2.5,2.7,63,0.00,,BKN120,0.00,VWS V14.00,2013-05-27 06:14:00,
2013-05-27 02:19:00,42.7,31.4,30.27,West,275,2.5,2.7,64,0.00,,BKN120,0.00,VWS V14.00,2013-05-27 06:19:00,
2013-05-27 02:24:00,42.9,32.0,30.27,West,275,0.0,0.0,65,0.00,,BKN120,0.00,VWS V14.00,2013-05-27 06:24:00,
2013-05-27 02:29:00,42.9,32.0,30.27,West,275,0.0,0.0,65,0.00,,BKN120,0.00,VWS V14.00,2013-05-27 06:29:00,
2013-05-27 02:34:00,43.1,32.1,30.27,West,275,0.0,0.0,65,0.00,,BKN120,0.00,VWS V14.00,2013-05-27 06:34:00,
2013-05-27 02:39:00,43.1,32.1,30.27,West,275,0.0,0.0,65,0.00,,BKN120,0.00,VWS V14.00,2013-05-27 06:39:00,
2013-05-27 02:44:00,42.9,32.0,30.27,West,275,0.0,0.0,65,0.00,,BKN120,0.00,VWS V14.00,2013-05-27 06:44:00,
2013-05-27 02:49:00,42.7,31.8,30.27,West,275,0.0,0.0,65,0.00,,BKN120,0.00,VWS V14.00,2013-05-27 06:49:00,
2013-05-27 02:55:00,42.0,31.8,30.27,West,275,0.0,0.0,67,0.00,,BKN120,0.00,VWS V14.00,2013-05-27 06:55:00,
2013-05-27 03:00:00,41.8,31.6,30.27,West,275,0.0,0.0,67,0.00,,BKN120,0.00,VWS V14.00,2013-05-27 07:00:00,
2013-05-27 03:05:00,42.3,32.2,30.27,West,275,0.0,0.0,67,0.00,,OVC110,0.00,VWS V14.00,2013-05-27 07:05:00,
2013-05-27 03:10:00,42.5,32.0,30.27,West,275,0.0,0.0,66,0.00,,OVC110,0.00,VWS V14.00,2013-05-27 07:10:00,
2013-05-27 03:15:00,42.3,32.2,30.27,West,275,0.0,0.0,67,0.00,,OVC110,0.00,VWS V14.00,2013-05-27 07:15:00,
2013-05-27 03:20:00,42.2,31.6,30.27,West,275,0.0,0.0,66,0.00,,OVC110,0.00,VWS V14.00,2013-05-27 07:20:00,
2013-05-27 03:25:00,41.8,31.6,30.27,West,275,0.0,0.0,67,0.00,,OVC110,0.00,VWS V14.00,2013-05-27 07:25:00,
2013-05-27 03:30:00,41.4,31.3,30.27,West,275,0.0,0.0,67,0.00,,OVC110,0.00,VWS V14.00,2013-05-27 07:30:00,
2013-05-27 03:35:00,41.0,31.3,30.24,West,275,0.0,0.0,68,0.00,,OVC110,0.00,VWS V14.00,2013-05-27 07:35:00,
2013-05-27 03:41:00,40.3,31.0,30.24,West,275,0.0,0.0,69,0.00,,OVC110,0.00,VWS V14.00,2013-05-27 07:41:00,
2013-05-27 03:46:00,40.5,31.5,30.24,West,275,0.0,0.0,70,0.00,,OVC110,0.00,VWS V14.00,2013-05-27 07:46:00,
2013-05-27 03:51:00,40.1,31.5,30.24,West,275,0.0,0.0,71,0.00,,OVC110,0.00,VWS V14.00,2013-05-27 07:51:00,
2013-05-27 03:56:00,39.6,31.0,30.24,West,275,0.0,0.0,71,0.00,,OVC110,0.00,VWS V14.00,2013-05-27 07:56:00,
2013-05-27 04:01:00,39.2,30.6,30.24,West,275,0.0,0.0,71,0.00,,OVC110,0.00,VWS V14.00,2013-05-27 08:01:00,
2013-05-27 04:06:00,38.8,30.6,30.24,West,275,0.0,0.0,72,0.00,,OVC110,0.00,VWS V14.00,2013-05-27 08:06:00,
2013-05-27 04:11:00,38.8,30.9,30.24,West,275,0.0,0.0,73,0.00,,OVC110,0.00,VWS V14.00,2013-05-27 08:11:00,
2013-05-27 04:16:00,39.4,31.5,30.24,West,275,0.0,0.0,73,0.00,,OVC110,0.00,VWS V14.00,2013-05-27 08:16:00,
2013-05-27 04:21:00,39.6,31.6,30.24,SSE,148,0.0,0.0,73,0.00,,OVC110,0.00,VWS V14.00,2013-05-27 08:21:00,
2013-05-27 04:26:00,39.6,31.6,30.24,SSE,148,0.0,0.0,73,0.00,,OVC110,0.00,VWS V14.00,2013-05-27 08:26:00,
2013-05-27 04:31:00,39.6,31.6,30.27,ESE,123,0.0,0.0,73,0.00,,OVC110,0.00,VWS V14.00,2013-05-27 08:31:00,
2013-05-27 04:37:00,39.6,31.6,30.27,ESE,122,0.0,0.0,73,0.00,,OVC110,0.00,VWS V14.00,2013-05-27 08:37:00,
2013-05-27 04:42:00,39.8,31.8,30.27,ESE,122,0.0,0.0,73,0.00,,OVC110,0.00,VWS V14.00,2013-05-27 08:42:00,
2013-05-27 04:47:00,39.6,31.6,30.27,ESE,120,0.0,0.0,73,0.00,,OVC110,0.00,VWS V14.00,2013-05-27 08:47:00,
2013-05-27 04:52:00,39.8,32.2,30.27,ESE,120,0.0,0.0,74,0.00,,OVC110,0.00,VWS V14.00,2013-05-27 08:52:00,
2013-05-27 04:57:00,39.9,32.3,30.27,ESE,120,0.0,0.0,74,0.00,,OVC110,0.00,VWS V14.00,2013-05-27 08:57:00,
2013-05-27 05:02:00,39.9,32.3,30.27,ESE,120,0.0,0.0,74,0.00,,OVC095,0.00,VWS V14.00,2013-05-27 09:02:00,
2013-05-27 05:07:00,39.9,32.3,30.27,ESE,120,0.0,0.0,74,0.00,,OVC095,0.00,VWS V14.00,2013-05-27 09:07:00,
2013-05-27 05:12:00,39.8,32.2,30.27,ESE,120,0.0,0.0,74,0.00,,OVC095,0.00,VWS V14.00,2013-05-27 09:12:00,
2013-05-27 05:17:00,39.8,32.2,30.27,ESE,120,0.0,0.0,74,0.00,,OVC095,0.00,VWS V14.00,2013-05-27 09:17:00,
2013-05-27 05:23:00,39.9,32.3,30.27,ESE,120,0.0,0.0,74,0.00,,OVC095,0.00,VWS V14.00,2013-05-27 09:23:00,
2013-05-27 05:28:00,39.0,32.1,30.27,NW,314,0.0,0.0,76,0.00,,OVC095,0.00,VWS V14.00,2013-05-27 09:28:00,
2013-05-27 05:33:00,38.6,31.7,30.27,NW,314,0.0,0.0,76,0.00,,OVC095,0.00,VWS V14.00,2013-05-27 09:33:00,
2013-05-27 05:38:00,38.5,31.9,30.27,NW,314,0.0,0.0,77,0.00,,OVC095,0.00,VWS V14.00,2013-05-27 09:38:00,
2013-05-27 05:43:00,39.0,32.7,30.27,WNW,300,0.0,0.0,78,0.00,,OVC095,0.00,VWS V14.00,2013-05-27 09:43:00,
2013-05-27 05:48:00,39.2,32.9,30.27,WSW,258,0.0,0.0,78,0.00,,OVC095,0.00,VWS V14.00,2013-05-27 09:48:00,
2013-05-27 05:53:00,39.4,32.8,30.27,South,176,0.0,0.0,77,0.00,,OVC095,0.00,VWS V14.00,2013-05-27 09:53:00,
2013-05-27 05:58:00,39.4,32.8,30.27,South,176,0.0,0.0,77,0.00,,OVC095,0.00,VWS V14.00,2013-05-27 09:58:00,
2013-05-27 06:03:00,38.6,32.7,30.27,NW,309,0.0,0.0,79,0.00,,OVC090,0.00,VWS V14.00,2013-05-27 10:03:00,
2013-05-27 06:08:00,38.5,32.8,30.27,WNW,292,0.0,0.0,80,0.00,,OVC090,0.00,VWS V14.00,2013-05-27 10:08:00,
2013-05-27 06:13:00,38.6,33.0,30.27,WNW,292,0.0,0.0,80,0.00,,OVC090,0.00,VWS V14.00,2013-05-27 10:13:00,
2013-05-27 06:18:00,38.8,32.9,30.27,WNW,292,0.0,0.0,79,0.00,,OVC090,0.00,VWS V14.00,2013-05-27 10:18:00,
2013-05-27 06:23:00,39.0,32.7,30.27,SE,146,0.0,0.0,78,0.00,,OVC090,0.00,VWS V14.00,2013-05-27 10:23:00,
2013-05-27 06:29:00,39.2,32.9,30.27,SSE,147,0.0,0.0,78,0.00,,OVC090,0.00,VWS V14.00,2013-05-27 10:29:00,
2013-05-27 06:33:00,39.4,33.1,30.27,SE,146,0.0,0.0,78,0.00,,OVC090,0.00,VWS V14.00,2013-05-27 10:33:00,
2013-05-27 06:39:00,39.4,33.1,30.27,SSE,147,0.0,0.0,78,0.00,,OVC090,0.00,VWS V14.00,2013-05-27 10:39:00,
2013-05-27 06:44:00,39.4,33.1,30.27,SE,146,0.0,0.0,78,0.00,,OVC090,0.00,VWS V14.00,2013-05-27 10:44:00,
2013-05-27 06:49:00,39.4,32.8,30.27,SSE,147,0.0,0.0,77,0.00,,OVC090,0.00,VWS V14.00,2013-05-27 10:49:00,
2013-05-27 06:54:00,39.4,33.1,30.27,SE,146,0.0,0.0,78,0.00,,OVC090,0.00,VWS V14.00,2013-05-27 10:54:00,
2013-05-27 06:59:00,39.4,33.1,30.27,SE,146,0.0,0.0,78,0.00,,OVC090,0.00,VWS V14.00,2013-05-27 10:59:00,
2013-05-27 07:04:00,39.6,33.6,30.29,SSE,147,0.0,0.0,79,0.00,,BKN100,0.00,VWS V14.00,2013-05-27 11:04:00,
2013-05-27 07:09:00,39.8,33.8,30.29,SE,146,0.0,0.0,79,0.00,,BKN100,0.00,VWS V14.00,2013-05-27 11:09:00,
2013-05-27 07:14:00,39.8,34.1,30.29,SE,146,0.0,0.0,80,0.00,,BKN100,0.00,VWS V14.00,2013-05-27 11:14:00,
2013-05-27 07:19:00,39.9,34.9,30.29,SSE,147,0.0,0.0,82,0.00,,BKN100,0.00,VWS V14.00,2013-05-27 11:19:00,
2013-05-27 07:24:00,39.9,35.5,30.29,West,271,0.0,0.0,84,0.00,,BKN100,0.00,VWS V14.00,2013-05-27 11:24:00,
2013-05-27 07:29:00,40.1,36.0,30.29,NW,305,0.0,0.0,85,0.00,,BKN100,0.00,VWS V14.00,2013-05-27 11:29:00,
2013-05-27 07:35:00,40.3,35.9,30.29,NW,305,0.0,0.0,84,0.00,,BKN100,0.00,VWS V14.00,2013-05-27 11:35:00,
2013-05-27 07:40:00,40.5,36.0,30.29,NW,305,0.0,0.0,84,0.00,,BKN100,0.00,VWS V14.00,2013-05-27 11:40:00,
2013-05-27 07:45:00,41.0,36.6,30.29,West,281,0.0,0.0,84,0.00,,BKN100,0.00,VWS V14.00,2013-05-27 11:45:00,
2013-05-27 07:50:00,41.2,36.5,30.29,West,281,0.0,0.0,83,0.00,,BKN100,0.00,VWS V14.00,2013-05-27 11:50:00,
2013-05-27 07:55:00,41.6,36.2,30.29,West,281,0.0,0.0,81,0.00,,BKN100,0.00,VWS V14.00,2013-05-27 11:55:00,
2013-05-27 08:00:00,42.0,36.6,30.29,NE,38,0.0,0.0,81,0.00,,BKN100,0.00,VWS V14.00,2013-05-27 12:00:00,
2013-05-27 08:05:00,42.3,36.6,30.29,West,274,0.0,0.0,80,0.00,,OVC110,0.00,VWS V14.00,2013-05-27 12:05:00,
2013-05-27 08:10:00,42.7,36.3,30.29,WNW,291,0.0,0.0,78,0.00,,OVC110,0.00,VWS V14.00,2013-05-27 12:10:00,
2013-05-27 08:15:00,43.1,36.4,30.29,West,266,0.0,0.0,77,0.00,,OVC110,0.00,VWS V14.00,2013-05-27 12:15:00,
2013-05-27 08:21:00,43.8,37.1,30.29,NNW,328,3.9,4.3,77,0.00,,OVC110,0.00,VWS V14.00,2013-05-27 12:21:00,
2013-05-27 08:26:00,44.0,36.9,30.29,NNW,330,3.0,3.8,76,0.00,,OVC110,0.00,VWS V14.00,2013-05-27 12:26:00,
2013-05-27 08:31:00,44.0,36.6,30.29,NNW,336,3.4,3.8,75,0.00,,OVC110,0.00,VWS V14.00,2013-05-27 12:31:00,
2013-05-27 08:36:00,44.2,36.5,30.29,NNW,333,3.0,3.2,74,0.00,,OVC110,0.00,VWS V14.00,2013-05-27 12:36:00,
2013-05-27 08:41:00,44.8,36.6,30.29,NW,320,0.0,0.0,73,0.00,,OVC110,0.00,VWS V14.00,2013-05-27 12:41:00,
2013-05-27 08:46:00,45.5,36.7,30.29,WNW,301,3.4,3.8,71,0.00,,OVC110,0.00,VWS V14.00,2013-05-27 12:46:00,
2013-05-27 08:51:00,45.9,37.0,30.29,WNW,298,0.0,2.7,71,0.00,,OVC110,0.00,VWS V14.00,2013-05-27 12:51:00,
2013-05-27 08:56:00,46.4,37.5,30.29,WNW,294,3.0,3.2,71,0.00,,OVC110,0.00,VWS V14.00,2013-05-27 12:56:00,
2013-05-27 09:01:00,47.2,37.9,30.29,NW,304,3.4,3.8,70,0.00,,OVC110,0.00,VWS V14.00,2013-05-27 13:01:00,
2013-05-27 09:06:00,47.3,38.1,30.29,WNW,285,3.0,3.8,70,0.00,,OVC110,0.00,VWS V14.00,2013-05-27 13:06:00,
2013-05-27 09:12:00,47.7,38.1,30.29,WNW,301,3.0,4.3,69,0.00,,OVC110,0.00,VWS V14.00,2013-05-27 13:12:00,
2013-05-27 09:17:00,47.9,37.9,30.29,SW,232,2.5,3.8,68,0.00,,OVC110,0.00,VWS V14.00,2013-05-27 13:17:00,
2013-05-27 09:22:00,48.5,38.0,30.29,SW,232,0.0,0.0,67,0.00,,OVC110,0.00,VWS V14.00,2013-05-27 13:22:00,
2013-05-27 09:27:00,48.8,38.0,30.29,West,263,0.0,0.0,66,0.00,,OVC110,0.00,VWS V14.00,2013-05-27 13:27:00,
2013-05-27 09:32:00,49.2,38.0,30.27,WSW,247,0.0,3.2,65,0.00,,OVC110,0.00,VWS V14.00,2013-05-27 13:32:00,
2013-05-27 09:37:00,49.4,38.1,30.27,WSW,258,0.0,2.7,65,0.00,,OVC110,0.00,VWS V14.00,2013-05-27 13:37:00,
2013-05-27 09:42:00,49.4,38.1,30.27,West,268,0.0,0.0,65,0.00,,OVC110,0.00,VWS V14.00,2013-05-27 13:42:00,
2013-05-27 09:47:00,49.6,38.7,30.27,West,265,0.0,2.7,66,0.00,,OVC110,0.00,VWS V14.00,2013-05-27 13:47:00,
2013-05-27 09:52:00,49.8,38.9,30.27,West,277,2.5,3.2,66,0.00,,OVC110,0.00,VWS V14.00,2013-05-27 13:52:00,
2013-05-27 09:57:00,49.9,39.4,30.27,WSW,256,0.0,0.0,67,0.00,,OVC110,0.00,VWS V14.00,2013-05-27 13:57:00,
2013-05-27 10:02:00,50.3,39.4,30.27,West,274,0.0,0.0,66,0.00,,-RA,0.00,VWS V14.00,2013-05-27 14:02:00,
2013-05-27 10:07:00,50.7,39.8,30.27,West,273,2.5,2.7,66,0.00,,-RA,0.00,VWS V14.00,2013-05-27 14:07:00,
2013-05-27 10:13:00,50.7,39.8,30.27,WSW,248,0.0,2.7,66,0.00,,-RA,0.00,VWS V14.00,2013-05-27 14:13:00,
2013-05-27 10:18:00,50.9,39.9,30.27,WNW,295,2.5,3.2,66,0.00,,-RA,0.00,VWS V14.00,2013-05-27 14:18:00,
2013-05-27 10:23:00,51.1,40.5,30.27,North,350,2.5,4.3,67,0.00,,-RA,0.00,VWS V14.00,2013-05-27 14:23:00,
2013-05-27 10:28:00,51.1,40.1,30.27,NNW,334,0.0,0.0,66,0.00,,-RA,0.00,VWS V14.00,2013-05-27 14:28:00,
2013-05-27 10:33:00,51.1,39.7,30.27,NNW,337,0.0,0.0,65,0.00,,-RA,0.00,VWS V14.00,2013-05-27 14:33:00,
2013-05-27 10:38:00,51.1,39.7,30.27,South,189,0.0,0.0,65,0.00,,-RA,0.00,VWS V14.00,2013-05-27 14:38:00,
2013-05-27 10:43:00,51.1,39.3,30.27,South,189,0.0,0.0,64,0.00,,-RA,0.00,VWS V14.00,2013-05-27 14:43:00,
2013-05-27 10:48:00,51.2,39.5,30.29,South,189,0.0,0.0,64,0.00,,-RA,0.00,VWS V14.00,2013-05-27 14:48:00,
2013-05-27 10:54:00,51.6,40.2,30.29,South,185,2.5,2.7,65,0.00,,-RA,0.00,VWS V14.00,2013-05-27 14:54:00,
2013-05-27 10:59:00,51.8,40.4,30.29,SW,234,3.0,3.2,65,0.00,,-RA,0.00,VWS V14.00,2013-05-27 14:59:00,
2013-05-27 11:04:00,52.2,41.2,30.29,West,276,2.5,3.2,66,0.00,,SCT090,0.00,VWS V14.00,2013-05-27 15:04:00,
2013-05-27 11:09:00,52.5,40.7,30.29,NW,311,0.0,2.7,64,0.00,,SCT090,0.00,VWS V14.00,2013-05-27 15:09:00,
2013-05-27 11:14:00,52.7,41.7,30.29,NW,311,0.0,0.0,66,0.00,,SCT090,0.00,VWS V14.00,2013-05-27 15:14:00,
2013-05-27 11:19:00,52.9,41.9,30.27,South,184,3.4,3.8,66,0.00,,SCT090,0.00,VWS V14.00,2013-05-27 15:19:00,
2013-05-27 11:24:00,52.9,41.9,30.27,East,81,0.0,0.0,66,0.00,,SCT090,0.00,VWS V14.00,2013-05-27 15:24:00,
2013-05-27 11:29:00,53.3,40.6,30.27,East,81,0.0,0.0,62,0.00,,SCT090,0.00,VWS V14.00,2013-05-27 15:29:00,
2013-05-27 11:34:00,53.5,40.8,30.27,WNW,293,3.0,3.2,62,0.00,,SCT090,0.00,VWS V14.00,2013-05-27 15:34:00,
2013-05-27 11:39:00,53.7,42.2,30.27,West,281,2.5,3.2,65,0.00,,SCT090,0.00,VWS V14.00,2013-05-27 15:39:00,
2013-05-27 11:44:00,53.7,42.6,30.27,WNW,289,3.0,3.2,66,0.00,,SCT090,0.00,VWS V14.00,2013-05-27 15:44:00,
2013-05-27 11:49:00,53.7,43.0,30.27,NNW,327,4.4,5.4,67,0.00,,SCT090,0.00,VWS V14.00,2013-05-27 15:49:00,
2013-05-27 11:55:00,53.7,43.0,30.27,WNW,282,3.4,3.8,67,0.00,,SCT090,0.00,VWS V14.00,2013-05-27 15:55:00,
2013-05-27 12:00:00,54.0,43.3,30.27,WNW,300,3.0,3.2,67,0.00,,SCT090,0.00,VWS V14.00,2013-05-27 16:00:00,
2013-05-27 12:05:00,54.4,42.5,30.27,WSW,254,2.5,3.2,64,0.00,,CLR,0.00,VWS V14.00,2013-05-27 16:05:00,
2013-05-27 12:10:00,55.5,43.1,30.27,SSW,209,0.0,3.8,63,0.00,,CLR,0.00,VWS V14.00,2013-05-27 16:10:00,
2013-05-27 12:15:00,56.4,42.3,30.27,West,280,3.4,4.3,59,0.00,,CLR,0.00,VWS V14.00,2013-05-27 16:15:00,
2013-05-27 12:20:00,57.0,39.6,30.27,West,275,3.4,4.3,52,0.00,,CLR,0.00,VWS V14.00,2013-05-27 16:20:00,
2013-05-27 12:25:00,57.5,38.0,30.27,West,268,3.4,4.3,48,0.00,,CLR,0.00,VWS V14.00,2013-05-27 16:25:00,
2013-05-27 12:30:00,58.1,38.0,30.27,West,262,4.4,4.8,47,0.00,,CLR,0.00,VWS V14.00,2013-05-27 16:30:00,
2013-05-27 12:35:00,59.0,39.4,30.27,West,278,3.4,4.3,48,0.00,,CLR,0.00,VWS V14.00,2013-05-27 16:35:00,
2013-05-27 12:40:00,59.4,40.2,30.27,West,272,5.4,5.9,49,0.00,,CLR,0.00,VWS V14.00,2013-05-27 16:40:00,
2013-05-27 12:45:00,59.6,40.4,30.27,WNW,285,3.4,4.3,49,0.00,,CLR,0.00,VWS V14.00,2013-05-27 16:45:00,
2013-05-27 12:50:00,59.4,39.2,30.27,NNW,327,6.4,7.0,47,0.00,,CLR,0.00,VWS V14.00,2013-05-27 16:50:00,
2013-05-27 12:56:00,60.0,40.2,30.27,WNW,297,6.4,7.0,48,0.00,,CLR,0.00,VWS V14.00,2013-05-27 16:56:00,
2013-05-27 13:01:00,60.1,40.9,30.27,WNW,293,0.0,4.8,49,0.00,,CLR,0.00,VWS V14.00,2013-05-27 17:01:00,
2013-05-27 13:06:00,60.1,40.4,30.27,NNW,335,3.9,4.3,48,0.00,,OVC065,0.00,VWS V14.00,2013-05-27 17:06:00,
2013-05-27 13:11:00,60.5,40.7,30.27,WNW,288,6.4,8.6,48,0.00,,OVC065,0.00,VWS V14.00,2013-05-27 17:11:00,
2013-05-27 13:16:00,61.2,42.0,30.27,SSW,195,4.4,4.8,49,0.00,,OVC065,0.00,VWS V14.00,2013-05-27 17:16:00,
2013-05-27 13:21:00,62.0,42.1,30.24,West,275,4.4,5.9,48,0.00,,OVC065,0.00,VWS V14.00,2013-05-27 17:21:00,
2013-05-27 13:26:00,61.8,40.3,30.24,WNW,285,3.4,5.4,45,0.00,,OVC065,0.00,VWS V14.00,2013-05-27 17:26:00,
2013-05-27 13:31:00,62.2,40.6,30.24,WNW,299,5.9,9.9,45,0.00,,OVC065,0.00,VWS V14.00,2013-05-27 17:31:00,
2013-05-27 13:36:00,62.4,41.3,30.24,NW,313,2.5,4.3,46,0.00,,OVC065,0.00,VWS V14.00,2013-05-27 17:36:00,
2013-05-27 13:41:00,62.7,41.1,30.24,WNW,302,3.4,4.8,45,0.00,,OVC065,0.00,VWS V14.00,2013-05-27 17:41:00,
2013-05-27 13:47:00,62.9,41.3,30.24,WSW,258,4.4,4.8,45,0.00,,OVC065,0.00,VWS V14.00,2013-05-27 17:47:00,
2013-05-27 13:52:00,64.0,43.4,30.24,West,270,3.4,7.5,47,0.00,,OVC065,0.00,VWS V14.00,2013-05-27 17:52:00,
2013-05-27 13:57:00,63.8,42.1,30.24,SW,228,6.4,7.5,45,0.00,,OVC065,0.00,VWS V14.00,2013-05-27 17:57:00,
2013-05-27 14:02:00,64.0,42.3,30.24,SW,227,3.0,4.3,45,0.00,,OVC065,0.00,VWS V14.00,2013-05-27 18:02:00,
2013-05-27 14:07:00,64.4,42.6,30.24,WSW,245,4.4,7.0,45,0.00,,OVC046,0.00,VWS V14.00,2013-05-27 18:07:00,
2013-05-27 14:12:00,65.2,42.7,30.24,SSW,202,5.9,7.5,44,0.00,,OVC046,0.00,VWS V14.00,2013-05-27 18:12:00,
2013-05-27 14:17:00,65.0,42.5,30.24,SSE,147,3.4,9.7,44,0.00,,OVC046,0.00,VWS V14.00,2013-05-27 18:17:00,
2013-05-27 14:22:00,64.6,42.8,30.24,SSW,198,5.4,7.0,45,0.00,,OVC046,0.00,VWS V14.00,2013-05-27 18:22:00,
2013-05-27 14:27:00,64.4,42.0,30.24,SSW,206,3.9,4.8,44,0.00,,OVC046,0.00,VWS V14.00,2013-05-27 18:27:00,
2013-05-27 14:32:00,64.6,42.2,30.24,West,274,3.4,4.3,44,0.00,,OVC046,0.00,VWS V14.00,2013-05-27 18:32:00,
2013-05-27 14:37:00,64.4,42.0,30.24,SSE,155,0.0,4.3,44,0.00,,OVC046,0.00,VWS V14.00,2013-05-27 18:37:00,
2013-05-27 14:42:00,64.6,42.8,30.24,West,262,3.4,5.9,45,0.00,,OVC046,0.00,VWS V14.00,2013-05-27 18:42:00,
2013-05-27 14:47:00,64.4,42.6,30.24,WNW,286,3.4,4.3,45,0.00,,OVC046,0.00,VWS V14.00,2013-05-27 18:47:00,
2013-05-27 14:52:00,64.4,43.2,30.24,SSW,199,0.0,3.2,46,0.00,,OVC046,0.00,VWS V14.00,2013-05-27 18:52:00,
2013-05-27 14:57:00,64.4,42.6,30.24,WSW,252,2.5,3.8,45,0.00,,OVC046,0.00,VWS V14.00,2013-05-27 18:57:00,
2013-05-27 15:03:00,64.8,43.5,30.21,SW,221,3.0,3.2,46,0.00,,OVC060,0.00,VWS V14.00,2013-05-27 19:03:00,
2013-05-27 15:08:00,65.2,44.4,30.21,West,259,3.9,4.8,47,0.00,,OVC060,0.00,VWS V14.00,2013-05-27 19:08:00,
2013-05-27 15:13:00,65.0,44.3,30.21,SSW,210,4.4,7.5,47,0.00,,OVC060,0.00,VWS V14.00,2013-05-27 19:13:00,
2013-05-27 15:18:00,65.0,44.3,30.21,WSW,256,3.4,4.3,47,0.00,,OVC060,0.00,VWS V14.00,2013-05-27 19:18:00,
2013-05-27 15:23:00,65.0,44.3,30.21,West,281,3.9,4.3,47,0.00,,OVC060,0.00,VWS V14.00,2013-05-27 19:23:00,
2013-05-27 15:28:00,65.2,44.4,30.21,West,260,3.0,3.8,47,0.00,,OVC060,0.00,VWS V14.00,2013-05-27 19:28:00,
2013-05-27 15:33:00,65.3,44.6,30.21,NW,313,3.4,4.3,47,0.00,,OVC060,0.00,VWS V14.00,2013-05-27 19:33:00,
2013-05-27 15:38:00,65.2,45.0,30.21,NNW,329,5.9,6.4,48,0.00,,OVC060,0.00,VWS V14.00,2013-05-27 19:38:00,
2013-05-27 15:43:00,65.2,43.9,30.21,NW,318,3.9,4.3,46,0.00,,OVC060,0.00,VWS V14.00,2013-05-27 19:43:00,
2013-05-27 15:48:00,65.7,44.4,30.21,NNW,337,4.4,5.9,46,0.00,,OVC060,0.00,VWS V14.00,2013-05-27 19:48:00,
2013-05-27 15:53:00,66.3,44.3,30.21,NNW,328,2.5,2.7,45,0.00,,OVC060,0.00,VWS V14.00,2013-05-27 19:53:00,
2013-05-27 15:58:00,66.8,45.4,30.21,NW,306,3.9,4.8,46,0.00,,OVC060,0.00,VWS V14.00,2013-05-27 19:58:00,
2013-05-27 16:03:00,67.0,45.6,30.21,WNW,295,3.9,4.3,46,0.00,,BKN055,0.00,VWS V14.00,2013-05-27 20:03:00,
2013-05-27 16:09:00,66.8,44.8,30.21,NE,36,0.0,2.7,45,0.00,,BKN055,0.00,VWS V14.00,2013-05-27 20:09:00,
2013-05-27 16:14:00,67.4,45.3,30.21,NW,317,4.4,4.8,45,0.00,,BKN055,0.00,VWS V14.00,2013-05-27 20:14:00,
2013-05-27 16:19:00,68.1,47.1,30.21,NW,304,4.4,6.4,47,0.00,,BKN055,0.00,VWS V14.00,2013-05-27 20:19:00,
2013-05-27 16:24:00,68.8,47.2,30.21,NNW,329,5.4,6.4,46,0.00,,BKN055,0.00,VWS V14.00,2013-05-27 20:24:00,
2013-05-27 16:29:00,69.2,47.6,30.21,NW,324,4.4,5.9,46,0.00,,BKN055,0.00,VWS V14.00,2013-05-27 20:29:00,
2013-05-27 16:34:00,68.8,46.7,30.21,NNW,330,3.4,3.8,45,0.00,,BKN055,0.00,VWS V14.00,2013-05-27 20:34:00,
2013-05-27 16:39:00,69.4,46.6,30.21,South,175,0.0,3.2,44,0.00,,BKN055,0.00,VWS V14.00,2013-05-27 20:39:00,
2013-05-27 16:44:00,69.8,46.9,30.21,South,180,3.0,3.8,44,0.00,,BKN055,0.00,VWS V14.00,2013-05-27 20:44:00,
2013-05-27 16:49:00,69.6,46.7,30.18,ESE,110,2.5,2.7,44,0.00,,BKN055,0.00,VWS V14.00,2013-05-27 20:49:00,
2013-05-27 16:55:00,69.8,46.9,30.18,South,173,4.4,4.8,44,0.00,,BKN055,0.00,VWS V14.00,2013-05-27 20:55:00,
2013-05-27 17:00:00,70.2,47.8,30.18,NW,311,6.4,7.0,45,0.00,,BKN055,0.00,VWS V14.00,2013-05-27 21:00:00,
2013-05-27 17:05:00,70.2,47.8,30.18,WNW,286,4.9,5.9,45,0.00,,BKN048,0.00,VWS V14.00,2013-05-27 21:05:00,
2013-05-27 17:10:00,70.0,47.1,30.18,NNW,344,3.0,5.4,44,0.00,,BKN048,0.00,VWS V14.00,2013-05-27 21:10:00,
2013-05-27 17:15:00,70.5,48.8,30.18,NW,311,3.4,3.8,46,0.00,,BKN048,0.00,VWS V14.00,2013-05-27 21:15:00,
2013-05-27 17:20:00,70.3,48.6,30.18,West,260,3.0,3.8,46,0.00,,BKN048,0.00,VWS V14.00,2013-05-27 21:20:00,
2013-05-27 17:25:00,70.3,48.0,30.18,South,190,3.4,3.8,45,0.00,,BKN048,0.00,VWS V14.00,2013-05-27 21:25:00,
2013-05-27 17:30:00,70.7,47.8,30.18,SSW,196,5.9,7.5,44,0.00,,BKN048,0.00,VWS V14.00,2013-05-27 21:30:00,
2013-05-27 17:35:00,70.9,47.3,30.18,SSW,211,2.5,3.8,43,0.00,,BKN048,0.00,VWS V14.00,2013-05-27 21:35:00,
2013-05-27 17:40:00,70.9,47.9,30.18,SSW,196,3.4,9.1,44,0.00,,BKN048,0.00,VWS V14.00,2013-05-27 21:40:00,
2013-05-27 17:45:00,70.7,46.5,30.18,South,187,3.9,4.3,42,0.00,,BKN048,0.00,VWS V14.00,2013-05-27 21:45:00,
2013-05-27 17:50:00,70.9,47.3,30.18,WSW,254,3.4,3.8,43,0.00,,BKN048,0.00,VWS V14.00,2013-05-27 21:50:00,
2013-05-27 17:55:00,71.1,48.1,30.18,WNW,286,5.9,6.4,44,0.00,,BKN048,0.00,VWS V14.00,2013-05-27 21:55:00,
2013-05-27 18:00:00,71.1,48.1,30.18,SW,221,6.4,7.0,44,0.00,,BKN048,0.00,VWS V14.00,2013-05-27 22:00:00,
2013-05-27 18:05:00,71.1,48.1,30.18,WSW,248,0.0,5.9,44,0.00,,OVC065,0.00,VWS V14.00,2013-05-27 22:05:00,
2013-05-27 18:11:00,71.1,48.1,30.18,South,185,3.0,8.6,44,0.00,,OVC065,0.00,VWS V14.00,2013-05-27 22:11:00,
2013-05-27 18:16:00,70.9,47.3,30.15,SSE,167,3.4,3.8,43,0.00,,OVC065,0.00,VWS V14.00,2013-05-27 22:16:00,
2013-05-27 18:21:00,71.1,47.5,30.15,South,189,6.9,7.5,43,0.00,,OVC065,0.00,VWS V14.00,2013-05-27 22:21:00,
2013-05-27 18:26:00,71.1,47.5,30.15,WSW,244,3.9,4.3,43,0.00,,OVC065,0.00,VWS V14.00,2013-05-27 22:26:00,
2013-05-27 18:31:00,71.3,48.2,30.15,SSW,202,3.0,3.8,44,0.00,,OVC065,0.00,VWS V14.00,2013-05-27 22:31:00,
2013-05-27 18:36:00,71.4,48.4,30.15,West,267,4.4,7.0,44,0.00,,OVC065,0.00,VWS V14.00,2013-05-27 22:36:00,
2013-05-27 18:41:00,71.3,48.2,30.15,SW,219,5.4,5.9,44,0.00,,OVC065,0.00,VWS V14.00,2013-05-27 22:41:00,
2013-05-27 18:46:00,71.3,47.6,30.15,SSW,211,3.0,3.8,43,0.00,,OVC065,0.00,VWS V14.00,2013-05-27 22:46:00,
2013-05-27 18:51:00,70.9,47.3,30.15,SSE,152,3.4,3.8,43,0.00,,OVC065,0.00,VWS V14.00,2013-05-27 22:51:00,
2013-05-27 18:57:00,70.7,47.8,30.15,SSE,168,3.0,4.3,44,0.00,,OVC065,0.00,VWS V14.00,2013-05-27 22:57:00,
2013-05-27 19:02:00,70.5,47.0,30.15,South,180,3.9,4.3,43,0.00,,OVC065,0.00,VWS V14.00,2013-05-27 23:02:00,
2013-05-27 19:07:00,70.5,47.0,30.15,SE,144,5.4,5.9,43,0.00,,SCT060,0.00,VWS V14.00,2013-05-27 23:07:00,
2013-05-27 19:12:00,70.5,47.0,30.15,ESE,120,2.5,7.5,43,0.00,,SCT060,0.00,VWS V14.00,2013-05-27 23:12:00,
2013-05-27 19:17:00,70.2,46.6,30.15,SSE,154,3.4,3.8,43,0.00,,SCT060,0.00,VWS V14.00,2013-05-27 23:17:00,
2013-05-27 19:22:00,70.0,46.5,30.15,SE,138,4.4,6.4,43,0.00,,SCT060,0.00,VWS V14.00,2013-05-27 23:22:00,
2013-05-27 19:27:00,69.8,46.3,30.15,SSE,159,5.9,6.4,43,0.00,,SCT060,0.00,VWS V14.00,2013-05-27 23:27:00,
2013-05-27 19:32:00,69.6,46.1,30.15,South,181,0.0,2.7,43,0.00,,SCT060,0.00,VWS V14.00,2013-05-27 23:32:00,
2013-05-27 19:37:00,69.4,46.6,30.15,South,185,3.0,3.2,44,0.00,,SCT060,0.00,VWS V14.00,2013-05-27 23:37:00,
2013-05-27 19:42:00,69.2,46.4,30.15,SSE,153,0.0,2.7,44,0.00,,SCT060,0.00,VWS V14.00,2013-05-27 23:42:00,
2013-05-27 19:47:00,69.0,46.2,30.15,SE,144,3.4,4.3,44,0.00,,SCT060,0.00,VWS V14.00,2013-05-27 23:47:00,
2013-05-27 19:52:00,68.8,46.1,30.15,SE,126,3.0,4.3,44,0.00,,SCT060,0.00,VWS V14.00,2013-05-27 23:52:00,
2013-05-27 19:58:00,68.7,46.5,30.15,South,175,0.0,0.0,45,0.00,,SCT060,0.00,VWS V14.00,2013-05-27 23:58:00,
2013-05-27 20:02:00,68.5,46.3,30.15,SE,142,0.0,3.2,45,0.00,,FEW060,0.00,VWS V14.00,2013-05-28 00:02:00,
2013-05-27 20:07:00,68.3,46.2,30.15,SE,146,0.0,0.0,45,0.00,,FEW060,0.00,VWS V14.00,2013-05-28 00:07:00,
2013-05-27 20:13:00,67.9,46.4,30.15,South,179,0.0,0.0,46,0.00,,FEW060,0.00,VWS V14.00,2013-05-28 00:13:00,
2013-05-27 20:18:00,67.6,46.1,30.15,South,179,0.0,0.0,46,0.00,,FEW060,0.00,VWS V14.00,2013-05-28 00:18:00,
2013-05-27 20:23:00,67.2,45.7,30.15,SE,131,0.0,0.0,46,0.00,,FEW060,0.00,VWS V14.00,2013-05-28 00:23:00,
2013-05-27 20:28:00,66.8,46.0,30.15,ESE,110,0.0,0.0,47,0.00,,FEW060,0.00,VWS V14.00,2013-05-28 00:28:00,
2013-05-27 20:33:00,66.6,45.8,30.18,SSW,204,2.5,2.7,47,0.00,,FEW060,0.00,VWS V14.00,2013-05-28 00:33:00,
2013-05-27 20:38:00,66.4,45.6,30.18,SSE,152,0.0,0.0,47,0.00,,FEW060,0.00,VWS V14.00,2013-05-28 00:38:00,
2013-05-27 20:43:00,66.3,45.5,30.18,ESE,107,0.0,0.0,47,0.00,,FEW060,0.00,VWS V14.00,2013-05-28 00:43:00,
2013-05-27 20:48:00,65.7,45.5,30.18,ESE,107,0.0,0.0,48,0.00,,FEW060,0.00,VWS V14.00,2013-05-28 00:48:00,
2013-05-27 20:54:00,65.3,45.7,30.18,ESE,107,0.0,0.0,49,0.00,,FEW060,0.00,VWS V14.00,2013-05-28 00:54:00,
2013-05-27 20:59:00,65.2,46.6,30.18,ESE,107,0.0,0.0,51,0.00,,FEW060,0.00,VWS V14.00,2013-05-28 00:59:00,
2013-05-27 21:04:00,64.6,46.6,30.18,ESE,107,0.0,0.0,52,0.00,,BKN075,0.00,VWS V14.00,2013-05-28 01:04:00,
2013-05-27 21:09:00,64.2,46.8,30.18,ESE,107,0.0,0.0,53,0.00,,BKN075,0.00,VWS V14.00,2013-05-28 01:09:00,
2013-05-27 21:14:00,63.8,46.9,30.18,ENE,64,0.0,0.0,54,0.00,,BKN075,0.00,VWS V14.00,2013-05-28 01:14:00,
2013-05-27 21:19:00,63.3,47.3,30.18,East,91,0.0,0.0,56,0.00,,BKN075,0.00,VWS V14.00,2013-05-28 01:19:00,
2013-05-27 21:24:00,62.7,47.3,30.18,East,91,0.0,0.0,57,0.00,,BKN075,0.00,VWS V14.00,2013-05-28 01:24:00,
2013-05-27 21:29:00,62.5,47.1,30.18,East,91,0.0,0.0,57,0.00,,BKN075,0.00,VWS V14.00,2013-05-28 01:29:00,
2013-05-27 21:34:00,62.0,47.1,30.18,East,86,0.0,2.7,58,0.00,,BKN075,0.00,VWS V14.00,2013-05-28 01:34:00,
2013-05-27 21:39:00,61.8,46.9,30.18,East,86,0.0,0.0,58,0.00,,BKN075,0.00,VWS V14.00,2013-05-28 01:39:00,
2013-05-27 21:44:00,61.6,47.2,30.18,East,83,3.0,3.2,59,0.00,,BKN075,0.00,VWS V14.00,2013-05-28 01:44:00,
2013-05-27 21:50:00,61.2,47.3,30.18,NE,45,0.0,0.0,60,0.00,,BKN075,0.00,VWS V14.00,2013-05-28 01:50:00,
2013-05-27 21:55:00,61.1,47.1,30.18,ENE,64,0.0,3.2,60,0.00,,BKN075,0.00,VWS V14.00,2013-05-28 01:55:00,
2013-05-27 22:00:00,60.7,47.2,30.18,ENE,63,0.0,0.0,61,0.00,,BKN075,0.00,VWS V14.00,2013-05-28 02:00:00,
2013-05-27 22:05:00,60.7,47.2,30.18,ENE,63,0.0,0.0,61,0.00,,CLR,0.00,VWS V14.00,2013-05-28 02:05:00,
2013-05-27 22:10:00,60.7,47.6,30.18,ENE,58,0.0,0.0,62,0.00,,CLR,0.00,VWS V14.00,2013-05-28 02:10:00,
2013-05-27 22:15:00,60.5,47.4,30.18,ENE,62,0.0,0.0,62,0.00,,CLR,0.00,VWS V14.00,2013-05-28 02:15:00,
2013-05-27 22:20:00,60.5,47.9,30.18,ENE,68,2.5,3.2,63,0.00,,CLR,0.00,VWS V14.00,2013-05-28 02:20:00,
2013-05-27 22:25:00,60.5,47.9,30.18,ENE,68,0.0,0.0,63,0.00,,CLR,0.00,VWS V14.00,2013-05-28 02:25:00,
2013-05-27 22:30:00,60.3,48.1,30.18,NE,55,0.0,0.0,64,0.00,,CLR,0.00,VWS V14.00,2013-05-28 02:30:00,
2013-05-27 22:35:00,60.3,48.1,30.18,NE,55,0.0,0.0,64,0.00,,CLR,0.00,VWS V14.00,2013-05-28 02:35:00,
2013-05-27 22:40:00,60.1,47.9,30.18,NE,55,0.0,0.0,64,0.00,,CLR,0.00,VWS V14.00,2013-05-28 02:40:00,
2013-05-27 22:45:00,60.3,48.1,30.18,NE,55,0.0,0.0,64,0.00,,CLR,0.00,VWS V14.00,2013-05-28 02:45:00,
2013-05-27 22:50:00,60.1,48.3,30.21,NE,55,0.0,0.0,65,0.00,,CLR,0.00,VWS V14.00,2013-05-28 02:50:00,
2013-05-27 22:55:00,60.1,47.9,30.21,ENE,77,0.0,0.0,64,0.00,,CLR,0.00,VWS V14.00,2013-05-28 02:55:00,
2013-05-27 23:00:00,60.1,48.3,30.21,ENE,77,0.0,0.0,65,0.00,,CLR,0.00,VWS V14.00,2013-05-28 03:00:00,
2013-05-27 23:05:00,60.1,48.3,30.21,ESE,110,0.0,0.0,65,0.00,,CLR,0.00,VWS V14.00,2013-05-28 03:05:00,
2013-05-27 23:10:00,60.1,48.3,30.21,ESE,110,0.0,0.0,65,0.00,,CLR,0.00,VWS V14.00,2013-05-28 03:10:00,
2013-05-27 23:15:00,60.0,48.6,30.21,ESE,110,0.0,0.0,66,0.00,,CLR,0.00,VWS V14.00,2013-05-28 03:15:00,
2013-05-27 23:20:00,60.0,48.6,30.21,ESE,110,0.0,0.0,66,0.00,,CLR,0.00,VWS V14.00,2013-05-28 03:20:00,
2013-05-27 23:26:00,60.0,48.6,30.21,ESE,110,0.0,0.0,66,0.00,,CLR,0.00,VWS V14.00,2013-05-28 03:26:00,
2013-05-27 23:31:00,60.0,48.6,30.21,ESE,110,0.0,0.0,66,0.00,,CLR,0.00,VWS V14.00,2013-05-28 03:31:00,
2013-05-27 23:36:00,60.0,48.6,30.21,ESE,110,0.0,0.0,66,0.00,,CLR,0.00,VWS V14.00,2013-05-28 03:36:00,
2013-05-27 23:41:00,59.8,48.8,30.21,ESE,110,0.0,0.0,67,0.00,,CLR,0.00,VWS V14.00,2013-05-28 03:41:00,
2013-05-27 23:46:00,59.6,48.6,30.21,ESE,110,0.0,0.0,67,0.00,,CLR,0.00,VWS V14.00,2013-05-28 03:46:00,
2013-05-27 23:51:00,59.6,49.0,30.21,ESE,110,0.0,0.0,68,0.00,,CLR,0.00,VWS V14.00,2013-05-28 03:51:00,
2013-05-27 23:56:00,59.6,49.0,30.21,ESE,110,0.0,0.0,68,0.00,,CLR,0.00,VWS V14.00,2013-05-28 03:56:00,